Orbital Elements at Epoch 2459200.5 (2020-Dec-17.0) TDB
Reference: JPL 28 (heliocentric ecliptic J2000)
Element | Value | Uncertainty (1-sigma) | Units |
e | .2026109178107574 | 4.6655e-08 | |
a | 2.401147352271104 | 1.2856e-08 | au |
q | 1.914648683428586 | 1.1548e-07 | au |
i | 8.524691930396619 | 5.2566e-06 | deg |
node | 300.8371338753592 | 2.4559e-05 | deg |
peri | 345.2031902009481 | 2.824e-05 | deg |
M | 325.1898434250761 | 1.9975e-05 | deg |
tp | 2459331.910516255904 (2021-Apr-27.41051626) | 7.6218e-05 | TDB |
period | 1359.022495354252 3.72 | 1.0915e-05 2.988e-08 | d yr |
n | .2648962774572469 | 2.1275e-09 | deg/d |
Q | 2.887646021113623 | 1.5461e-08 | au |
|
| | Orbit Determination Parameters
Additional Information
|